DW9848 Weather Reports


time (UTC)temp
C
wind
direction
speed
KPH
gust
KPH
rain 1hr
cm
rain 24hr
cm
rain mn
cm
humidity
%
barometer
mb
20260508004531 11 19 0.0 0.0 0.00 0.00 0.00 77 1002.2
20260508003016 11 19 0.0 1.6 0.00 0.00 0.00 77 1002.4
20260508001515 11 40 1.6 4.8 0.00 0.00 0.00 77 1002.4
20260508000015 11 360 0.0 3.2 0.00 0.00 0.00 77 1002.4
20260507234521 11 360 0.0 0.0 0.00 0.00 0.00 77 1002.4
20260507233022 11 360 0.0 0.0 0.00 0.00 0.00 77 1002.4
20260507231510 12 360 0.0 3.2 0.00 0.00 0.00 77 1002.4
20260507230009 12 360 0.0 1.6 0.00 0.00 0.00 76 1002.5
20260507224510 12 360 0.0 3.2 0.00 0.00 0.00 76 1002.5
20260507223006 12 245 0.0 0.0 0.00 0.00 0.00 76 1002.5
20260507221502 12 245 0.0 0.0 0.00 0.00 0.00 76 1002.5
20260507220100 13 245 0.0 0.0 0.00 0.00 0.00 76 1002.4
20260507214559 13 245 0.0 0.0 0.00 0.00 0.00 76 1002.3
20260507213058 13 245 0.0 0.0 0.00 0.00 0.00 76 1002.1
20260507211604 13 245 0.0 0.0 0.00 0.00 0.00 76 1002.1
20260507210057 14 245 0.0 1.6 0.00 0.00 0.00 75 1002.0
20260507204557 15 245 0.0 0.0 0.00 0.00 0.00 75 1002.0
20260507203056 15 245 0.0 0.0 0.00 0.00 0.00 75 1001.8
20260507201556 15 245 0.0 1.6 0.00 0.00 0.00 75 1001.8
20260507200055 14 245 0.0 0.0 0.00 0.00 0.00 76 1001.7
20260507194554 14 245 0.0 3.2 0.00 0.00 0.00 76 1001.4
20260507193058 15 245 0.0 0.0 0.00 0.00 0.00 75 1001.2
20260507191553 16 245 0.0 0.0 0.00 0.00 0.00 74 1000.9
20260507190052 17 245 0.0 0.0 0.00 0.00 0.00 71 1000.6
20260507184551 18 245 0.0 0.0 0.00 0.00 0.00 64 1000.5
20260507183051 18 245 0.0 0.0 0.00 0.00 0.00 58 1000.5
20260507181550 19 240 0.0 1.6 0.00 0.00 0.00 55 1000.3
20260507180051 19 240 0.0 3.2 0.00 0.00 0.00 54 1000.2
20260507174614 20 227 0.0 4.8 0.00 0.00 0.00 55 1000.1
20260507173049 20 233 0.0 3.2 0.00 0.00 0.00 53 999.9
20260507171602 20 212 1.6 4.8 0.00 0.00 0.00 52 999.9
20260507170046 21 234 1.6 6.4 0.00 0.00 0.00 50 999.9
20260507164552 21 193 3.2 9.7 0.00 0.00 0.00 50 999.9
20260507163045 21 221 1.6 9.7 0.00 0.00 0.00 50 999.9
20260507161550 21 239 1.6 6.4 0.00 0.00 0.00 48 999.8
20260507160109 21 202 1.6 6.4 0.00 0.00 0.00 48 999.8
20260507154543 21 218 4.8 11.3 0.00 0.00 0.00 49 999.8
20260507153042 22 302 1.6 11.3 0.00 0.00 0.00 48 999.9
20260507151542 21 241 1.6 8.0 0.00 0.00 0.00 48 999.9
20260507150041 22 238 1.6 9.7 0.00 0.00 0.00 48 1000.0
20260507144539 22 234 1.6 11.3 0.00 0.00 0.00 49 1000.0
20260507143038 21 227 3.2 12.9 0.00 0.00 0.00 47 1000.1
20260507141537 22 232 1.6 8.0 0.00 0.00 0.00 51 1000.2
20260507140044 21 238 1.6 9.7 0.00 0.00 0.00 54 1000.3
20260507134535 22 257 0.0 6.4 0.00 0.00 0.00 56 1000.4
20260507133033 21 225 1.6 4.8 0.00 0.00 0.00 54 1000.6
20260507131553 20 201 3.2 11.3 0.00 0.00 0.00 56 1000.8
20260507130027 20 237 3.2 16.1 0.00 0.00 0.00 58 1000.9
20260507124524 20 214 0.0 4.8 0.00 0.00 0.00 62 1001.0
20260507123028 20 256 0.0 6.4 0.00 0.00 0.00 60 1001.1
20260507121522 20 248 6.4 14.5 0.00 0.00 0.00 58 1001.1
20260507120029 20 84 0.0 12.9 0.00 0.00 0.00 58 1001.2
20260507114519 20 220 3.2 11.3 0.00 0.00 0.00 60 1001.3
20260507113044 18 321 1.6 12.9 0.00 0.00 0.00 61 1001.4
20260507111518 20 208 0.0 9.7 0.00 0.00 0.00 63 1001.5
20260507110015 19 89 1.6 8.0 0.00 0.00 0.00 63 1001.6
20260507104517 18 213 3.2 8.0 0.00 0.00 0.00 65 1001.8
20260507103008 18 240 1.6 11.3 0.00 0.00 0.00 67 1002.0
20260507101507 18 81 0.0 6.4 0.00 0.00 0.00 67 1002.1
20260507100002 17 198 1.6 4.8 0.00 0.00 0.00 70 1002.2
20260507094537 17 334 0.0 3.2 0.00 0.00 0.00 69 1002.2
20260507093035 16 213 0.0 4.8 0.00 0.00 0.00 72 1002.1
20260507091537 16 212 0.0 3.2 0.00 0.00 0.00 71 1002.0
20260507090030 17 71 0.0 4.8 0.00 0.00 0.00 71 1002.0
20260507084544 16 91 0.0 6.4 0.00 0.00 0.00 72 1001.9
20260507083026 15 107 0.0 6.4 0.00 0.00 0.00 75 1001.9
20260507081521 15 12 1.6 6.4 0.00 0.00 0.00 76 1002.0
20260507080017 14 88 1.6 8.0 0.00 0.00 0.00 76 1001.9
20260507074513 13 51 0.0 8.0 0.00 0.00 0.00 76 1001.8
20260507073010 12 84 4.8 9.7 0.00 0.00 0.00 77 1001.8
20260507071515 12 83 1.6 9.7 0.00 0.00 0.00 77 1001.7
20260507070015 12 12 3.2 9.7 0.00 0.00 0.00 77 1001.6
20260507064505 12 15 1.6 6.4 0.00 0.00 0.00 77 1001.5
20260507063002 12 22 3.2 8.0 0.00 0.00 0.00 77 1001.4
20260507061600 11 10 3.2 8.0 0.00 0.00 0.00 77 1001.4
20260507054557 11 38 3.2 8.0 0.00 0.00 0.00 77 1001.1
20260507053057 11 45 1.6 4.8 0.00 0.00 0.00 77 1001.0
20260507051559 11 47 0.0 6.4 0.00 0.00 0.00 77 1000.7
20260507050105 11 29 1.6 6.4 0.00 0.00 0.00 77 1000.5
20260507044554 11 48 1.6 9.7 0.00 0.00 0.00 77 1000.4
20260507043047 11 61 3.2 8.0 0.00 0.00 0.00 77 1000.3
20260507041547 11 76 1.6 6.4 0.00 0.00 0.00 76 1000.2
20260507040048 11 42 1.6 6.4 0.00 0.00 0.00 77 1000.1
20260507034544 11 44 1.6 8.0 0.00 0.00 0.00 77 1000.0
20260507033046 11 70 1.6 6.4 0.00 0.00 0.00 76 1000.0
20260507031542 11 5 1.6 6.4 0.00 0.00 0.00 76 999.9
20260507030042 11 21 3.2 8.0 0.00 0.00 0.00 76 999.9
20260507024545 11 46 3.2 8.0 0.00 0.00 0.00 76 999.9
20260507023039 11 44 3.2 9.7 0.00 0.00 0.00 76 999.9
20260507021550 11 62 1.6 6.4 0.00 0.00 0.00 76 1000.0
20260507020037 11 55 0.0 6.4 0.00 0.00 0.00 76 1000.0
20260507014535 11 52 1.6 9.7 0.00 0.00 0.00 77 999.8
20260507013036 11 45 1.6 4.8 0.00 0.00 0.00 77 999.8
20260507011537 11 26 0.0 3.2 0.00 0.00 0.00 77 999.7
20260507010041 11 74 0.0 8.0 0.00 0.00 0.00 77 999.7